Location: Crescent
(42.8242°N, 73.7329°W)
Time: 22:07:26
(UTC+00:00)

Vanguard 2 Rocket - Pass Details

Date: 17 February 2026
Orbit: 553 x 3287 km, 32.9° (Epoch: 7 March)

Event Time Altitude Azimuth Distance (km) Brightness Sun altitude
Rises 18:44:42 0° 248° (WSW) 7,179 12.1 31.2°
Reaches altitude 10° 18:49:58 10° 245° (WSW) 5,986 12.0 30.7°
Maximum altitude 19:06:44 53° 176° (S) 2,680 10.3 29.1°
Drops below altitude 10° 19:17:01 10° 103° (ESE) 3,815 9.9 28.0°
Sets 19:19:36 0° 98° (E) 4,499 10.2 27.8°
